Weather History for Ft. Stewart, GA

Change the Weather History Date:

Tuesday, January 7, 2014

  Actual Average Record
Temperature  
Mean Temperature 24 °F -  
Max Temperature 31 °F 63 °F 79 °F (2007)
Min Temperature 17 °F 42 °F 17 °F (2014)
Degree Days  
Heating Degree Days 41    
Moisture  
Dew Point 6 °F    
Average Humidity 45    
Maximum Humidity 73    
Minimum Humidity 33    
Precipitation  
Precipitation 0.00 in - - ()
Sea Level Pressure  
Sea Level Pressure 30.50 in    
Wind  
Wind Speed 8 mph (WNW)    
Max Wind Speed 15 mph    
Max Gust Speed 20 mph    
Visibility 10 miles    
Events      
Averages and records for this station are not official NWS values.
T = Trace of Precipitation, MM = Missing Value Source: NWS Daily Summary

Daily Weather History Graph

Daily Weather History Graph

Search for Another Location

Airport:

Trip Planner

Search our weather history database for the weather conditions in past years. The results will help you decide how hot, cold, wet, or windy it might be!

Date:

Astronomy

Jan. 07, 2014 Rise Set
Actual Time 7:27 AM EST 5:37 PM EST
Civil Twilight 7:00 AM EST 6:04 PM EST
Nautical Twilight 6:30 AM EST 6:34 PM EST
Astronomical Twilight 6:00 AM EST 7:04 PM EST
Moon 11:42 AM EST (1/7) No Moon Set
Length of Visible Light 11h 04m
Length of Day
10h 10m
Waxing Crescent, 45% of the Moon is Illuminated
Jan 7
Waxing Crescent
Jan 7
First Quarter
Jan 15
Full
Jan 24
Last Quarter
Jan 30
New

Hourly Weather History & Observations

Time (EST) Temp. Windchill Dew Point Humidity Pressure Visibility Wind Dir Wind Speed Gust Speed Precip Events Conditions
12:58 AM 24.6 °F 15.8 °F 3.7 °F 41% 30.39 in 10.0 mi NW 8.1 mph - N/A   Clear
1:58 AM 22.8 °F 11.5 °F 3.0 °F 43% 30.42 in 10.0 mi NW 11.5 mph 19.6 mph N/A   Clear
2:58 AM 21.2 °F 7.8 °F 3.0 °F 46% 30.43 in 10.0 mi WNW 15.0 mph 18.4 mph N/A   Clear
3:58 AM 20.1 °F 9.5 °F 2.8 °F 47% 30.45 in 10.0 mi WNW 9.2 mph - N/A   Clear
4:58 AM 19.6 °F 8.1 °F 4.5 °F 52% 30.46 in 10.0 mi WNW 10.4 mph - N/A   Clear
5:58 AM 19.0 °F 8.2 °F 4.8 °F 54% 30.47 in 10.0 mi NW 9.2 mph - N/A   Clear
6:58 AM 18.1 °F 5.0 °F 2.8 °F 51% 30.47 in 10.0 mi WNW 12.7 mph - N/A   Clear
7:58 AM 17.8 °F 5.9 °F 2.1 °F 50% 30.51 in 10.0 mi NW 10.4 mph - N/A   Clear
8:58 AM 18.7 °F 7.8 °F 2.5 °F 49% 30.53 in 10.0 mi NW 9.2 mph - N/A   Clear
9:58 AM 21.2 °F 10.9 °F 3.6 °F 47% 30.56 in 10.0 mi WNW 9.2 mph - N/A   Clear
10:58 AM 23.7 °F 14.7 °F 3.4 °F 42% 30.56 in 10.0 mi West 8.1 mph - N/A   Partly Cloudy
11:58 AM 25.7 °F 17.1 °F 3.7 °F 39% 30.53 in 10.0 mi West 8.1 mph - N/A   Clear
12:58 PM 28.2 °F 23.1 °F 3.7 °F 35% 30.48 in 10.0 mi NW 4.6 mph - N/A   Clear
1:58 PM 28.8 °F - 4.5 °F 36% 30.47 in 10.0 mi Variable 1.2 mph - N/A   Partly Cloudy
2:58 PM 30.6 °F 21.8 °F 4.6 °F 33% 30.47 in 10.0 mi West 10.4 mph - N/A   Mostly Cloudy
3:58 PM 31.5 °F 22.9 °F 5.9 °F 34% 30.48 in 10.0 mi WNW 10.4 mph - N/A   Overcast
4:58 PM 29.3 °F 21.5 °F 4.8 °F 35% 30.49 in 10.0 mi NW 8.1 mph - N/A   Overcast
5:58 PM 28.6 °F 22.4 °F 5.2 °F 37% 30.51 in 10.0 mi NW 5.8 mph - N/A   Overcast
6:58 PM 28.4 °F 24.6 °F 6.3 °F 39% 30.52 in 10.0 mi NNW 3.5 mph - N/A   Overcast
7:58 PM 28.0 °F - 8.8 °F 44% 30.53 in 10.0 mi NW 2.3 mph - N/A   Mostly Cloudy
8:58 PM 27.0 °F - 11.5 °F 52% 30.56 in 10.0 mi Calm Calm - N/A   Clear
9:58 PM 26.4 °F - 10.2 °F 51% 30.56 in 10.0 mi Calm Calm - N/A   Clear
10:58 PM 26.4 °F - 12.9 °F 57% 30.56 in 10.0 mi Calm Calm - N/A   Clear
11:58 PM 25.5 °F - 18.0 °F 73% 30.54 in 10.0 mi Calm Calm - N/A   Clear